Weather History for KFLL - June, 2013

Change the Weather History Date:

Monday, June 10, 2013

  Actual Average Record
Temperature  
Mean Temperature 83 °F 83 °F  
Max Temperature 87 °F 89 °F 95 °F (1957)
Min Temperature 79 °F 77 °F 65 °F (1924)
Degree Days  
Heating Degree Days 0 0  
Month to date heating degree days 0 0  
Since 1 June heating degree days 0 0  
Since 1 July heating degree days 85 112  
Cooling Degree Days 18 18  
Month to date cooling degree days 172 177  
Year to date cooling degree days 1568 1595  
Since 1 June cooling degree days 172 177  
Growing Degree Days 32 (Base 50)    
Moisture  
Dew Point 75 °F    
Average Humidity 81    
Maximum Humidity 91    
Minimum Humidity 70    
Precipitation  
Precipitation 0.02 in 0.35 in 2.44 in (1965)
Month to date precipitation 9.64 3.30  
Year to date precipitation 34.43 20.79  
Snow  
Snow 0.00 in - - ()
Month to date snowfall 0.0  
Since 1 June snowfall 0.0  
Since 1 July snowfall 0.0  
Snow Depth 0.00 in    
Sea Level Pressure  
Sea Level Pressure 30.05 in    
Wind  
Wind Speed 12 mph (ESE)    
Max Wind Speed 20 mph    
Max Gust Speed 23 mph    
Visibility 10 miles    
Events Rain    
T = Trace of Precipitation, MM = Missing Value Source: NWS Daily Summary

Daily Weather History Graph

Daily Weather History Graph

Search for Another Location

Airport or City:

Trip Planner

Search our weather history database for the weather conditions in past years. The results will help you decide how hot, cold, wet, or windy it might be!

Date:

Astronomy

Jun. 10, 2013 Rise Set
Actual Time 6:27 AM EDT 8:12 PM EDT
Civil Twilight 6:01 AM EDT 8:38 PM EDT
Nautical Twilight 5:30 AM EDT 9:09 PM EDT
Astronomical Twilight 4:57 AM EDT 9:42 PM EDT
Moon 8:07 AM EDT (6/10) 9:47 PM EDT (6/10)
Length of Visible Light 14h 36m
Length of Day
13h 44m
Waxing Crescent, 4% of the Moon is Illuminated
Jun 10
Waxing Crescent
Jun 16
First Quarter
Jun 23
Full
Jun 30
Last Quarter
Jul 8
New

Hourly Weather History & Observations

Time (EDT) Temp. Heat Index Dew Point Humidity Pressure Visibility Wind Dir Wind Speed Gust Speed Precip Events Conditions
12:53 AM 81.0 °F 86.2 °F 73.9 °F 79% 30.08 in 10.0 mi ESE 13.8 mph - N/A   Partly Cloudy
1:53 AM 80.1 °F 85.1 °F 75.0 °F 85% 30.07 in 10.0 mi ESE 12.7 mph - N/A   Partly Cloudy
2:53 AM 80.1 °F 85.1 °F 75.0 °F 85% 30.06 in 10.0 mi East 9.2 mph - N/A   Scattered Clouds
3:53 AM 80.1 °F 85.1 °F 75.0 °F 85% 30.05 in 10.0 mi East 12.7 mph - N/A   Partly Cloudy
4:21 AM 78.8 °F - 75.2 °F 89% 30.04 in 10.0 mi East 12.7 mph - N/A   Mostly Cloudy
4:34 AM 80.6 °F 86.2 °F 75.2 °F 84% 30.05 in 10.0 mi East 13.8 mph - N/A   Scattered Clouds
4:53 AM 79.0 °F - 75.9 °F 90% 30.04 in 10.0 mi ESE 12.7 mph - 0.00 in   Scattered Clouds
5:53 AM 80.1 °F 85.1 °F 75.0 °F 85% 30.05 in 10.0 mi ESE 12.7 mph - N/A   Scattered Clouds
6:08 AM 80.6 °F 86.2 °F 75.2 °F 84% 30.05 in 6.0 mi ESE 15.0 mph - 0.00 in Rain Light Rain
6:18 AM 78.8 °F - 75.2 °F 89% 30.05 in 9.0 mi East 17.3 mph 23.0 mph 0.02 in   Scattered Clouds
6:53 AM 80.1 °F 85.1 °F 75.0 °F 85% 30.06 in 10.0 mi ESE 13.8 mph - 0.02 in   Partly Cloudy
7:53 AM 81.0 °F 86.7 °F 75.0 °F 82% 30.06 in 10.0 mi ESE 15.0 mph - N/A   Partly Cloudy
8:53 AM 82.9 °F 90.2 °F 75.0 °F 77% 30.08 in 10.0 mi ESE 13.8 mph - N/A   Partly Cloudy
9:53 AM 84.0 °F 91.2 °F 73.9 °F 72% 30.08 in 10.0 mi ESE 13.8 mph - N/A   Partly Cloudy
10:53 AM 84.0 °F 91.9 °F 75.0 °F 74% 30.09 in 10.0 mi ESE 11.5 mph 18.4 mph N/A   Scattered Clouds
11:53 AM 86.0 °F 96.0 °F 75.9 °F 72% 30.08 in 10.0 mi ESE 12.7 mph - N/A   Scattered Clouds
12:53 PM 86.0 °F 96.0 °F 75.9 °F 72% 30.06 in 10.0 mi East 15.0 mph - N/A   Partly Cloudy
1:53 PM 86.0 °F 96.0 °F 75.9 °F 72% 30.06 in 10.0 mi ESE 13.8 mph - N/A   Partly Cloudy
2:53 PM 86.0 °F 95.1 °F 75.0 °F 70% 30.04 in 10.0 mi East 12.7 mph - N/A   Scattered Clouds
3:53 PM 84.9 °F 93.3 °F 75.0 °F 72% 30.04 in 10.0 mi East 13.8 mph - N/A   Scattered Clouds
4:53 PM 84.0 °F 91.9 °F 75.0 °F 74% 30.03 in 10.0 mi East 12.7 mph 19.6 mph N/A   Scattered Clouds
5:53 PM 82.9 °F 90.2 °F 75.0 °F 77% 30.02 in 10.0 mi East 11.5 mph - N/A   Scattered Clouds
6:53 PM 82.9 °F 90.2 °F 75.0 °F 77% 30.01 in 10.0 mi East 10.4 mph - N/A   Scattered Clouds
7:53 PM 82.0 °F 88.6 °F 75.0 °F 79% 30.01 in 10.0 mi East 11.5 mph - N/A   Partly Cloudy
8:53 PM 82.0 °F 89.4 °F 75.9 °F 82% 30.04 in 10.0 mi East 9.2 mph - N/A   Partly Cloudy
9:53 PM 82.0 °F 89.4 °F 75.9 °F 82% 30.07 in 10.0 mi ESE 10.4 mph - N/A   Mostly Cloudy
10:02 PM 82.4 °F 89.5 °F 75.2 °F 79% 30.07 in 10.0 mi ESE 10.4 mph - N/A   Mostly Cloudy
10:53 PM 82.4 °F 89.5 °F 75.2 °F 79% 30.07 in 10.0 mi ESE 9.2 mph - N/A   Partly Cloudy
11:53 PM 82.4 °F 89.5 °F 75.2 °F 79% 30.07 in 10.0 mi ESE 9.2 mph - N/A   Partly Cloudy